CAPE
11 91 15 0 344 370 206 108 10 0 0 10 3 25 493 635 713 539 422 170 96 45 18 0 0 0 0 0 0 0 1 1 1 1 1 1 1 1
0 0 12 5 16 153 228 293 255 157 3 4 4 54 105 528 514 541 601 396 153 86 40 16 0 0 0 0 0 0 0 0 1 0 0 0 0 0
0 2 0 7 40 172 180 270 280 315 191 160 65 56 41 146 458 450 436 439 241 114 62 23 1 0 0 0 0 0 0 0 0 0 1 0 0 0
0 0 0 2 1 3 32 164 201 297 385 241 228 226 203 167 98 89 348 415 389 216 98 30 0 0 0 0 0 0 0 0 0 0 0 1 2 1
3 1 0 1 2 1 1 0 0 0 10 252 130 205 189 176 95 5 23 256 303 283 119 102 40 1 0 0 0 0 0 0 0 0 0 0 0 1
2 3 1 1 0 1 3 3 2 0 24 37 55 101 74 55 3 0 0 26 157 287 72 60 62 5 0 0 0 0 0 0 0 0 0 0 0 0
1 5 1 0 0 0 0 0 4 2 0 11 0 0 0 2 0 0 0 0 0 8 76 57 3 0 0 0 0 0 0 0 0 0 1 1 0 2
0 1 0 1 0 0 0 0 0 2 4 6 4 34 3 4 2 0 0 0 0 0 0 6 12 0 0 0 0 0 0 0 0 0 1 2 1 1
0 0 0 0 6 0 0 0 0 0 0 2 4 4 4 0 0 3 0 0 0 0 0 0 28 1 0 0 0 0 0 0 0 0 0 0 2 1
0 0 0 0 0 0 0 0 0 0 1 1 2 2 3 1 3 3 1 0 0 0 0 0 0 0 0 0 0 0 0 0 0 0 0 0 0 1
0 0 0 0 0 0 0 0 0 0 0 2 0 0 0 0 0 2 1 3 1 0 0 2 0 0 0 0 0 0 0 0 0 0 0 0 0 1
1 1 0 0 0 0 0 0 0 0 2 1 0 1 1 0 0 0 2 4 2 0 0 3 0 0 0 0 0 0 0 0 0 0 0 0 0 3
0 0 1 0 0 0 1 0 0 1 0 2 0 0 0 2 1 1 1 1 2 2 0 0 0 0 1 0 0 0 0 0 0 0 0 0 0 1
2 1 0 0 0 0 1 0 0 0 1 2 1 0 1 0 1 0 0 0 0 2 1 0 0 0 0 0 0 0 0 0 0 0 0 0 1 3
0 1 1 0 0 1 0 0 0 0 0 1 0 0 0 1 1 1 0 0 0 0 0 0 1 1 3 0 0 0 0 0 0 0 0 1 0 4
3 0 0 0 0 0 0 0 0 0 0 0 0 0 0 0 1 2 4 2 0 0 0 0 0 2 10 1 1 1 0 0 0 2 0 2 3 3
0 0 1 1 0 0 0 0 0 0 0 0 0 0 0 1 0 0 2 2 4 2 0 0 0 0 1 0 0 1 1 0 0 0 2 0 6 3
0 0 0 0 1 1 0 0 0 0 0 0 0 0 0 0 1 0 0 2 2 3 3 1 1 0 0 0 0 0 1 0 0 0 1 0 1 3
0 0 1 3 3 0 0 0 0 0 0 0 0 0 0 0 0 0 2 0 1 3 3 2 1 2 2 2 0 0 0 0 0 0 0 0 1 1
0 11 14 11 11 10 5 3 1 0 0 0 0 0 0 0 1 0 1 1 0 1 2 2 2 3 4 3 2 0 0 0 0 0 0 2 1 1
0 9 12 10 10 11 11 11 10 5 1 0 0 0 1 1 0 0 0 0 0 1 1 3 1 0 1 1 1 2 0 0 1 1 0 1 1 1
2 11 15 15 12 11 7 6 7 6 5 2 1 1 1 2 3 2 1 2 0 1 1 1 0 0 1 2 1 2 1 0 0 0 0 0 0 0
13 15 13 13 4 7 13 8 8 8 8 8 5 2 1 3 4 3 2 2 1 0 0 1 1 0 0 0 0 0 0 0 0 0 0 1 0 0
CIN
-21 -7 -2 -0 -3 -7 -23 -23 -97 -0 -0 -215 -177 -123 -25 -25 -34 -54 -86 -237 -308 -372 -428 -0 -0 -0 -0 -0 -0 -0 -0 -0 -0 -0 -0 -0 -0 -0
-0 -0 -1 -0 -12 -3 -9 -15 -16 -9 -6 -80 -197 -130 -58 -24 -33 -46 -52 -81 -252 -342 -415 -452 -0 -0 -0 -0 -0 -0 -0 -0 -0 -0 -0 -0 -0 -0
-0 -0 -0 -2 -32 -1 -1 -3 -5 -12 -4 -33 -75 -80 -71 -21 -20 -34 -34 -50 -151 -277 -353 -411 -382 -0 -0 -0 -0 -0 -0 -0 -0 -0 -0 -0 -0 -0
-0 -0 -0 -0 -0 -3 -24 -0 -2 -3 -3 -8 -27 -17 -9 -9 -16 -29 -40 -40 -38 -153 -274 -352 -0 -0 -0 -0 -0 -0 -0 -0 -0 -0 -0 -0 -0 -0
-0 -0 -0 -0 -0 -0 -0 -0 -0 -0 -10 -0 -8 -48 -40 -45 -89 -85 -73 -25 -44 -54 -198 -270 -339 -35 -0 -0 -0 -0 -0 -0 -0 -0 -0 -0 -0 -0
-1 -0 -1 -0 -0 -0 -0 -0 -0 -0 -24 -3 -4 -20 -43 -86 -135 -0 -0 -0 -9 -25 -86 -179 -274 -276 -0 -0 -0 -0 -0 -0 -0 -0 -0 -0 -0 -0
-0 -3 -0 -0 -0 -0 -0 -0 -0 -0 -0 -7 -0 -0 -0 -50 -0 -0 -0 -0 -0 -40 -18 -45 -161 -0 -0 -0 -0 -0 -0 -0 -0 -0 -0 -0 -0 -0
-0 -0 -3 -0 -0 -0 -0 -0 -0 -0 -0 -0 -0 -6 -8 -129 -134 -0 -0 -0 -0 -0 -0 -76 -88 -0 -0 -0 -0 -0 -0 -0 -0 -0 -0 -0 -0 -0
-0 -0 -0 -0 -1 -0 -0 -0 -0 -0 -0 -0 -0 -0 -0 -0 -0 -86 -0 -0 -0 -0 -0 -0 -95 -18 -0 -0 -0 -0 -0 -0 -0 -0 -0 -0 -0 -0
-0 -0 -0 -0 -0 -0 -0 -0 -0 -0 -0 -0 -0 -0 -0 -0 -0 -17 -4 -0 -0 -0 -0 -0 -0 -0 -0 -0 -0 -0 -0 -0 -0 -0 -0 -0 -0 -0
-0 -0 -0 -0 -0 -0 -0 -0 -0 -0 -0 -0 -0 -0 -0 -0 -0 -0 -0 -4 -0 -0 -14 -0 -0 -0 -0 -0 -0 -0 -0 -0 -0 -0 -0 -0 -0 -0
-0 -0 -0 -0 -0 -0 -0 -0 -0 -0 -0 -0 -0 -0 -0 -0 -0 -0 -0 -0 -0 -0 -0 -22 -0 -0 -0 -0 -0 -0 -0 -0 -0 -0 -0 -0 -0 -0
-1 -1 -0 -0 -1 -0 -1 -0 -0 -0 -0 -0 -0 -0 -0 -0 -0 -0 -0 -0 -0 -0 -1 -0 -0 -0 -0 -0 -0 -0 -0 -0 -0 -0 -0 -0 -0 -0
-1 -0 -0 -0 -1 -0 -0 -0 -0 -0 -0 -0 -0 -0 -0 -0 -0 -0 -0 -0 -0 -0 -0 -0 -0 -0 -0 -0 -0 -0 -0 -0 -0 -0 -0 -0 -0 -0
-1 -2 -1 -1 -0 -3 -0 -0 -0 -1 -0 -0 -0 -0 -0 -0 -0 -0 -0 -0 -0 -0 -0 -0 -1 -16 -61 -0 -0 -0 -0 -0 -0 -0 -0 -0 -0 -0
-2 -0 -1 -0 -0 -0 -0 -0 -1 -0 -0 -0 -0 -0 -0 -0 -0 -0 -0 -0 -0 -0 -0 -0 -0 -0 -17 -0 -0 -0 -0 -0 -0 -0 -0 -0 -0 -0
-3 -7 -5 -2 -0 -0 -0 -0 -0 -0 -0 -0 -0 -0 -0 -0 -0 -0 -0 -0 -0 -0 -0 -0 -0 -0 -0 -0 -24 -0 -0 -0 -0 -0 -0 -0 -0 -0
-2 -0 -0 -4 -3 -3 -2 -0 -0 -0 -0 -0 -2 -0 -0 -0 -0 -0 -0 -0 -0 -0 -0 -0 -0 -0 -0 -0 -0 -0 -0 -0 -0 -0 -0 -0 -0 -0
-0 -14 -10 -4 -6 -4 -2 -1 -0 -0 -2 -4 -0 -2 -0 -0 -0 -0 -0 -0 -0 -0 -0 -0 -0 -0 -0 -0 -0 -0 -0 -0 -0 -0 -0 -0 -0 -0
-2 -1 -0 -3 -1 -2 -6 -7 -7 -2 -0 -0 -2 -2 -1 -1 -0 -0 -0 -0 -0 -0 -0 -0 -0 -0 -0 -0 -0 -0 -0 -0 -0 -0 -0 -0 -0 -0
-6 -4 -2 -2 -1 -1 -1 -2 -3 -6 -9 -3 -0 -3 -2 -1 -0 -0 -0 -0 -0 -0 -0 -0 -0 -0 -0 -0 -0 -0 -0 -0 -0 -0 -0 -0 -0 -0
-6 -1 -1 -2 -1 -1 -2 -3 -2 -1 -2 -6 -5 -3 -3 -4 -1 -1 -1 -1 -0 -0 -0 -0 -0 -0 -0 -0 -0 -0 -0 -0 -0 -0 -0 -0 -0 -0
-1 -1 -1 -1 -3 -2 -0 -1 -1 -1 -1 -1 -2 -4 -5 -1 -2 -2 -3 -1 -2 -0 -0 -0 -0 -0 -0 -0 -0 -0 -0 -0 -0 -0 -0 -0 -0 -0
Wind_Speed
44 53 57 48 42 45 41 42 39 41 39 34 33 31 27 26 24 22 22 20 19 20 20 20 20 20 20 19 18 17 16 14 13 11 10 9 8 8
39 45 48 45 51 41 43 46 47 43 45 38 38 35 29 29 28 27 26 24 21 20 20 21 21 21 22 22 21 21 20 18 17 16 14 13 11 11
39 42 41 43 48 47 45 44 43 43 48 47 43 43 44 38 33 31 31 31 30 26 24 23 22 22 22 23 22 23 24 23 21 20 19 17 16 14
39 39 39 41 39 40 39 46 49 49 49 50 47 44 43 42 45 44 39 36 35 33 30 28 27 25 24 25 25 25 25 26 25 24 23 21 20 19
38 38 40 40 37 41 45 50 53 50 52 52 50 45 44 43 41 38 42 44 40 39 36 33 31 29 28 26 25 26 27 27 27 27 27 26 25 23
37 36 38 38 41 41 40 40 44 50 48 47 52 52 47 45 45 51 55 43 37 39 39 39 37 34 33 30 30 28 28 28 29 30 30 29 28 28
37 37 37 38 34 36 40 43 44 45 48 50 53 51 51 47 49 45 50 62 58 48 48 43 43 41 40 39 37 32 30 30 30 30 30 30 31 31
38 38 38 38 40 39 40 43 42 44 45 47 50 50 48 46 42 42 42 43 54 42 45 48 39 45 48 43 39 36 34 33 33 32 31 32 32 32
38 38 38 38 38 40 43 44 42 42 42 44 47 50 50 46 44 47 45 45 46 45 43 49 44 46 47 46 45 41 38 35 33 32 31 31 32 33
38 39 40 40 36 41 45 47 46 44 42 42 44 47 49 47 47 45 48 47 48 48 42 51 47 47 44 46 45 45 44 41 39 37 35 33 32 32
40 41 41 40 40 43 46 49 50 48 45 44 47 48 48 48 47 47 50 51 58 59 48 48 51 52 46 47 48 47 45 44 42 40 38 36 35 34
43 42 42 42 44 45 46 47 50 49 49 50 51 47 45 45 46 45 47 51 56 56 48 51 49 48 53 48 48 41 40 39 40 40 38 38 36 37
46 46 44 46 47 48 47 46 46 48 48 48 48 46 46 45 44 43 44 46 51 56 48 46 52 51 53 56 50 39 35 37 35 38 32 32 35 34
47 47 48 49 50 49 48 45 46 46 46 44 44 45 46 46 46 46 46 48 50 54 51 48 53 51 51 56 56 46 41 39 36 35 33 33 29 28
44 47 50 51 52 49 45 45 44 41 42 45 46 45 43 44 45 46 46 47 50 52 51 51 51 51 51 56 56 50 49 45 38 37 35 34 34 33
44 46 48 49 48 46 45 42 40 41 42 43 44 44 43 43 44 43 46 48 51 52 48 47 51 51 53 53 53 56 50 49 41 39 37 38 35 33
49 47 46 45 46 45 44 43 41 40 41 41 41 43 44 43 44 43 44 45 49 50 52 49 48 51 53 53 56 54 52 51 47 45 41 43 40 37
48 48 47 43 41 42 44 44 42 41 40 40 41 42 42 42 43 43 42 44 48 49 49 48 49 51 52 54 51 58 58 55 48 45 45 47 48 42
46 47 45 41 40 41 41 42 43 41 40 41 41 42 42 42 42 42 42 42 45 46 47 46 46 49 55 60 52 46 53 51 48 48 47 46 49 45
43 45 45 43 40 40 39 40 41 42 41 41 41 40 41 41 41 41 41 41 42 44 46 44 43 43 48 53 56 52 43 48 48 48 47 43 42 39
44 45 43 42 41 40 39 39 40 42 43 42 41 40 39 40 42 41 41 41 41 42 44 43 42 43 44 44 48 50 44 41 42 45 44 45 42 42
41 45 43 41 41 42 40 39 40 39 41 41 41 41 41 40 40 41 40 41 40 41 43 42 41 41 40 40 45 46 44 41 38 36 38 41 39 45
44 45 45 43 41 42 40 38 39 39 39 41 42 42 42 42 40 40 39 38 39 41 41 43 40 38 39 38 40 40 41 40 40 40 39 35 33 34
Wind_Direction
284 272 264 283 262 259 263 266 270 270 272 274 275 275 272 274 273 270 272 267 249 242 238 235 235 234 235 236 236 237 236 239 239 237 236 233 228 220
298 291 283 275 267 271 266 265 266 271 272 272 274 276 274 271 270 271 273 270 262 255 252 250 248 245 243 242 243 242 242 243 245 242 240 239 241 237
296 295 296 291 279 277 270 270 270 271 271 272 273 273 273 277 277 273 272 273 274 267 262 261 260 254 251 247 248 247 244 245 247 246 244 243 244 246
297 296 298 291 289 284 276 272 273 274 274 274 272 273 275 276 276 277 277 272 271 272 268 268 268 266 260 254 251 248 245 245 246 249 248 249 247 246
301 298 295 294 294 285 288 279 275 278 279 274 271 273 275 277 279 284 288 279 269 270 272 270 270 271 269 268 259 251 249 248 248 250 250 251 250 250
304 303 300 297 293 291 291 293 283 275 281 280 280 270 274 277 277 277 279 288 289 276 274 274 273 274 275 277 275 268 259 255 254 252 252 252 251 251
307 304 303 301 297 295 291 292 291 285 282 275 278 282 273 275 274 279 276 274 284 285 281 277 276 276 278 280 279 276 270 263 260 259 258 254 252 251
310 308 305 303 300 296 293 296 296 290 286 282 277 274 276 275 277 280 281 278 278 287 285 277 279 276 277 279 278 278 279 275 271 268 263 261 256 253
314 312 309 307 304 300 296 294 293 292 288 286 283 278 280 287 279 277 278 279 278 284 282 281 281 279 280 279 279 280 282 283 281 278 274 269 263 258
315 315 311 308 309 306 300 295 292 291 290 288 287 286 284 287 286 283 279 280 279 277 281 280 281 283 283 279 279 280 281 282 282 282 280 276 270 263
312 312 310 309 311 310 304 298 293 291 292 289 290 289 287 286 285 284 279 277 272 269 276 278 279 280 284 282 280 281 283 280 281 282 281 277 274 272
308 309 309 308 308 309 306 302 295 294 293 291 290 290 289 289 286 282 281 277 276 277 276 274 279 282 282 283 284 285 285 283 281 283 280 280 279 277
303 304 305 305 306 306 307 302 299 297 295 294 291 289 289 289 289 288 283 279 278 276 279 280 279 280 278 280 283 288 285 287 289 289 282 276 278 274
304 302 301 301 301 303 304 302 301 300 296 294 294 293 290 289 288 289 286 283 280 278 284 279 278 275 280 279 280 285 286 286 288 287 287 286 276 267
316 307 301 300 299 299 302 302 302 301 300 294 292 292 294 293 291 290 289 287 284 282 281 280 278 277 276 276 280 281 284 284 283 285 286 286 285 281
319 312 308 303 299 299 298 301 303 302 299 297 295 296 296 295 293 293 291 290 287 284 285 285 280 281 276 275 276 279 280 280 283 282 284 286 285 283
315 315 311 309 303 298 296 297 298 300 299 299 298 298 297 296 295 296 293 292 286 286 286 288 288 282 279 279 276 278 278 278 279 281 281 283 283 283
315 311 310 309 308 304 297 295 296 297 298 298 298 298 299 299 298 297 297 292 289 288 288 289 289 287 282 278 275 276 276 280 279 278 278 279 282 283
318 307 308 309 307 306 302 296 293 295 297 297 296 297 298 298 299 299 299 296 293 291 290 292 292 286 281 277 279 277 277 280 281 280 276 276 279 283
319 306 304 306 306 305 305 301 295 294 294 296 296 297 297 297 299 299 300 299 298 295 292 294 292 291 286 282 281 281 281 280 279 277 281 279 280 284
316 304 302 304 304 304 304 303 299 294 292 293 295 296 297 297 295 296 298 299 300 299 296 293 295 296 295 293 285 281 283 282 281 277 282 277 278 279
313 301 301 305 303 302 303 303 301 299 295 292 292 293 295 296 295 296 297 298 299 300 297 298 298 299 297 295 290 288 285 284 284 281 283 278 275 277
306 299 300 303 302 302 303 304 303 301 299 295 292 291 293 293 295 296 296 299 299 299 300 298 300 300 296 296 296 295 291 285 282 279 277 285 282 280